Location: Cincinnati Observatory Center
(39.1389°N, 84.4225°W)
Time: 04:40:40
(UTC-04:00)

Amateur Radio Satellites - All Passes

Search period start: 01 October 2016 04:10
Search period end: 02 October 2016 04:10
Location: Cincinnati Observatory Center, 39.1389°N, 84.4225°W

Satellite Date Start Highest point End Downlink Frequencies (MHz)
Time Altitude Azimuth
PCSat 01 Oct 04:11:35 04:16:42 45° 112° (ESE) 04:21:51 145.827
AIST 2 01 Oct 04:13:50 04:17:52 56° 304° (NW) 04:21:57 435.215
ITAMSAT 1 01 Oct 04:18:27 04:23:28 46° 99° (E) 04:28:29 435.822/435.867
Gurwin Techsat 1B 01 Oct 04:44:05 04:48:36 29° 293° (WNW) 04:53:06 435.225
YUBILEINY 01 Oct 04:48:12 04:56:29 45° 285° (WNW) 05:04:47 435.215
AO-7 01 Oct 04:50:59 04:58:53 46° 101° (E) 05:06:45 29.400- 29.500
CUBESAT XI-V 01 Oct 04:51:28 04:54:29 17° 65° (ENE) 04:57:33 437.345
KKS-1 01 Oct 04:57:03 05:01:31 85° 257° (WSW) 05:05:59 437.445
MOZHAYETS 4 01 Oct 04:57:32 05:02:00 54° 260° (W) 05:06:31
Oscar 19 01 Oct 05:00:53 05:01:16 10° 302° (WNW) 05:01:40 437.125/150
AO-85 01 Oct 05:10:15 05:13:21 20° 46° (NE) 05:16:19 145.980
STARS 01 Oct 05:20:56 05:25:19 83° 73° (ENE) 05:29:42 437.465
Cosmos 2504 01 Oct 05:22:44 05:29:59 59° 281° (W) 05:37:03 435.465 / 435.565
RS-15 01 Oct 05:35:29 05:47:58 84° 59° (ENE) 06:00:05 29.354- 29.394
PCSat 01 Oct 05:55:45 06:00:16 26° 309° (NW) 06:04:49 145.827
CUSAT 1 01 Oct 05:56:05 06:02:54 36° 70° (ENE) 06:08:32 437.405
ITAMSAT 1 01 Oct 05:58:43 06:02:36 22° 296° (WNW) 06:06:29 435.822/435.867
AIST 1 01 Oct 05:59:15 06:03:38 80° 276° (W) 06:08:02
BRITE-PL 01 Oct 06:05:44 06:08:07 14° 89° (E) 06:10:24 437.365/2234.400
HORYU 2 01 Oct 06:09:35 06:13:22 27° 96° (E) 06:17:10 437.375
DANDE 01 Oct 06:18:06 06:25:04 28° 66° (ENE) 06:31:29 436.750
CUBESAT XI-V 01 Oct 06:26:55 06:31:27 48° 261° (W) 06:36:03 437.345
O/OREOS (USA 219) 01 Oct 06:42:46 06:46:22 23° 102° (ESE) 06:50:00 437.305
AO-7 01 Oct 06:44:00 06:51:28 39° 299° (WNW) 06:58:57 29.400- 29.500
LilacSat-2 01 Oct 06:44:20 06:45:02 10° 91° (E) 06:45:44 437.200
CUTE-I 01 Oct 06:45:17 06:48:15 15° 91° (E) 06:51:13 437.470
Cubesat XI-IV 01 Oct 06:46:17 06:49:18 15° 91° (E) 06:52:18 437.490
AO-85 01 Oct 06:50:09 06:53:55 36° 246° (WSW) 06:57:30 145.980
GOMX 1 01 Oct 07:13:18 07:17:04 29° 96° (E) 07:20:42 467.674
DOVE 4 01 Oct 07:17:43 07:19:28 12° 91° (E) 07:21:13 437.250
STRAND 1 01 Oct 07:19:51 07:24:14 30° 67° (ENE) 07:28:38 437.568
GONETS M04 01 Oct 07:21:58 07:23:57 11° 73° (ENE) 07:25:56
CUSAT 1 01 Oct 07:38:11 07:44:53 39° 272° (W) 07:50:24 437.405
BRITE-PL 01 Oct 07:42:30 07:47:00 48° 288° (WNW) 07:51:11 437.365/2234.400
HORYU 2 01 Oct 07:46:07 07:49:50 26° 292° (WNW) 07:53:32 437.375
RS-15 01 Oct 07:49:45 07:58:57 26° 260° (W) 08:08:00 29.354- 29.394
HO-68 01 Oct 07:53:01 07:54:29 11° 87° (E) 07:55:57 435.675
NOAA 15 01 Oct 07:54:59 08:00:18 85° 101° (E) 08:05:35 137.62
NOAA 18 01 Oct 07:55:23 08:00:45 54° 101° (ESE) 08:06:06 137.9125
DANDE 01 Oct 08:00:12 08:08:29 65° 266° (W) 08:15:48 436.750
LilacSat-2 01 Oct 08:15:52 08:19:36 49° 285° (WNW) 08:23:19 437.200
O/OREOS (USA 219) 01 Oct 08:21:30 08:25:35 32° 298° (WNW) 08:29:42 437.305
CUTE-I 01 Oct 08:23:24 08:28:43 65° 287° (WNW) 08:34:01 437.470
Cosmos 2499 01 Oct 08:24:01 08:29:30 25° 84° (E) 08:34:56 435.465 / 435.565
Cubesat XI-IV 01 Oct 08:24:28 08:29:47 64° 287° (WNW) 08:35:05 437.490
BEESAT 3 01 Oct 08:38:36 08:40:33 13° 44° (NE) 08:42:30 437.485
SEEDS 01 Oct 08:46:31 08:49:09 16° 92° (E) 08:51:47 437.485
CUTE 1.7 + AOD 2 01 Oct 08:51:12 08:54:51 26° 96° (E) 08:58:28 437.475
GOMX 1 01 Oct 08:51:46 08:55:00 21° 293° (WNW) 08:58:08 467.674
CANX-2 01 Oct 08:53:02 08:56:55 32° 97° (E) 09:00:46 2200.000
DOVE 4 01 Oct 08:53:28 08:57:28 46° 287° (WNW) 09:01:26 437.250
STRAND 1 01 Oct 08:58:51 09:03:18 31° 263° (W) 09:07:49 437.568
AAUSAT CUBESAT 2 01 Oct 08:59:32 09:00:43 11° 90° (E) 09:01:53 437.432
GONETS M04 01 Oct 09:10:14 09:18:58 68° 93° (E) 09:27:44
PRISM 01 Oct 09:24:17 09:28:18 49° 73° (ENE) 09:32:20 437.425
HO-68 01 Oct 09:36:05 09:43:16 75° 104° (ESE) 09:50:25 435.675
NOAA 18 01 Oct 09:37:04 09:40:59 20° 297° (WNW) 09:44:53 137.9125
NOAA 15 01 Oct 09:37:12 09:39:19 12° 301° (WNW) 09:41:27 137.62
CINEMA 3 01 Oct 09:37:50 09:42:00 62° 285° (WNW) 09:46:16 145.822/145.860
BEESAT 2 01 Oct 09:40:52 09:44:17 26° 50° (NE) 09:47:41 435.950
COMPASS 1 01 Oct 09:45:08 09:49:15 51° 99° (E) 09:53:20 437.405
PHONESAT 2.4 01 Oct 09:46:13 09:48:45 27° 154° (SSE) 09:51:18 2401.200-2431.200
DANDE 01 Oct 09:47:12 09:49:30 11° 285° (WNW) 09:51:44 436.750
ANTELSAT 01 Oct 10:00:06 10:02:32 15° 65° (ENE) 10:04:59 437.575/2403.000
FUNcube-1 01 Oct 10:06:51 10:10:34 26° 96° (E) 10:14:19 145.935
BEESAT 3 01 Oct 10:14:41 10:18:38 66° 242° (WSW) 10:22:34 437.485
Cosmos 2499 01 Oct 10:15:12 10:22:06 52° 282° (WNW) 10:28:59 435.465 / 435.565
TIGRISAT 01 Oct 10:18:33 10:21:51 22° 68° (ENE) 10:25:10 435.000
CUBEBUG 2 01 Oct 10:19:48 10:24:09 82° 282° (WNW) 10:28:38 437.445
SEEDS 01 Oct 10:21:01 10:25:00 40° 288° (WNW) 10:28:58 437.485
CUTE 1.7 + AOD 2 01 Oct 10:27:03 10:30:34 25° 291° (WNW) 10:34:03 437.475
CANX-2 01 Oct 10:29:20 10:32:33 21° 292° (WNW) 10:35:45 2200.000
UWE-3 01 Oct 10:29:51 10:34:14 84° 103° (ESE) 10:38:44 435.000/436.395/437.385
AAUSAT CUBESAT 2 01 Oct 10:32:24 10:36:31 55° 286° (WNW) 10:40:35 437.432
HUMSAT D 01 Oct 10:39:49 10:41:21 12° 91° (E) 10:42:53 437.325/437.525
Oscar 11 01 Oct 10:41:24 10:45:46 67° 102° (ESE) 10:50:05 145.826/435.025
ZACube-1 01 Oct 10:50:34 10:54:58 90° 115° (ESE) 10:59:27 437.345
UNISAT 6 01 Oct 10:59:21 11:03:35 71° 75° (ENE) 11:07:50 437.425
PRISM 01 Oct 11:01:59 11:03:51 13° 268° (W) 11:05:43 437.425
GONETS M04 01 Oct 11:09:31 11:16:30 25° 292° (WNW) 11:23:32
BEESAT 2 01 Oct 11:18:38 11:22:02 26° 247° (WSW) 11:25:24 435.950
DELFI C3 01 Oct 11:19:37 11:23:38 73° 100° (E) 11:27:37 145.870
PHONESAT 2.4 01 Oct 11:21:45 11:24:40 81° 349° (N) 11:27:36 2401.200-2431.200
DUCHIFAT 1 01 Oct 11:21:45 11:23:46 13° 65° (ENE) 11:25:46 145.980
COMPASS 1 01 Oct 11:22:19 11:24:20 13° 295° (WNW) 11:26:22 437.405
HO-68 01 Oct 11:25:10 11:30:15 21° 302° (WNW) 11:35:19 435.675
QB50P1 01 Oct 11:27:18 11:30:08 18° 67° (ENE) 11:32:57 145.935-145.965
ANTELSAT 01 Oct 11:34:49 11:38:53 44° 261° (W) 11:42:58 437.575/2403.000
POPSAT HIP 1 01 Oct 11:40:34 11:43:57 24° 69° (ENE) 11:47:20 437.405
FUNcube-1 01 Oct 11:43:03 11:46:42 26° 290° (WNW) 11:50:24 145.935
JAS-2 01 Oct 11:44:59 11:50:52 33° 64° (ENE) 11:57:19 435.910
NANOSAT C BR1 01 Oct 11:53:43 11:57:26 32° 71° (ENE) 12:01:11 145.865
TIGRISAT 01 Oct 11:54:44 11:58:23 28° 264° (W) 12:02:05 435.000
HUMSAT D 01 Oct 12:13:05 12:17:17 56° 285° (WNW) 12:21:29 437.325/437.525
Oscar 11 01 Oct 12:20:00 12:21:18 11° 297° (WNW) 12:22:36 145.826/435.025
QB50P2 01 Oct 12:20:24 12:24:36 78° 76° (ENE) 12:28:48 145.880/145.840
ESTCUBE 1 01 Oct 12:20:27 12:24:09 24° 95° (E) 12:27:50 437.505/2401.250
POLYITAN 1 01 Oct 12:22:35 12:26:46 78° 75° (ENE) 12:30:58 437.675
AIST 2 01 Oct 12:35:59 12:40:10 64° 57° (ENE) 12:44:20 435.215
BUGSAT 1 01 Oct 12:41:16 12:45:06 41° 73° (ENE) 12:48:56 437.445
DUCHIFAT 1 01 Oct 12:54:57 12:59:00 50° 260° (W) 13:03:04 145.980
AISAT 01 Oct 12:55:59 12:59:49 29° 97° (E) 13:03:36 437.250
Oscar 19 01 Oct 12:56:39 12:59:40 16° 62° (ENE) 13:02:41 437.125/150
PHONESAT 2.4 01 Oct 12:57:56 13:00:51 69° 6° (N) 13:03:47 2401.200-2431.200
PCSat 01 Oct 13:00:35 13:05:20 30° 52° (NE) 13:10:04 145.827
QB50P1 01 Oct 13:01:45 13:05:37 36° 262° (W) 13:09:31 145.935-145.965
YUBILEINY 01 Oct 13:04:24 13:09:41 17° 63° (ENE) 13:14:54 435.215
50 SAT 01 Oct 13:13:10 13:16:39 40° 99° (E) 13:20:05 437.505
POPSAT HIP 1 01 Oct 13:16:07 13:19:37 26° 264° (W) 13:23:09 437.405
DX 1 01 Oct 13:17:41 13:21:29 29° 97° (E) 13:25:14 434.975-435.025
JAS-2 01 Oct 13:29:19 13:35:35 46° 263° (W) 13:42:38 435.910
NANOSAT C BR1 01 Oct 13:30:13 13:33:13 19° 266° (W) 13:36:14 145.865
CUBEBUG 1 01 Oct 13:32:40 13:37:01 83° 284° (WNW) 13:41:19 437.445
VELOX 1 01 Oct 13:38:47 13:43:13 85° 103° (ESE) 13:47:35 145.980
AUBIESAT-1 01 Oct 13:49:49 13:52:52 33° 104° (ESE) 13:55:59 437.475
SPROUT 01 Oct 13:54:39 13:58:54 73° 102° (ESE) 14:03:08 437.525
ESTCUBE 1 01 Oct 13:57:00 14:00:55 30° 291° (WNW) 14:04:50 437.505/2401.250
AO-7 01 Oct 14:02:37 14:05:33 12° 46° (NE) 14:08:31 29.400- 29.500
UKube-1 01 Oct 14:16:54 14:21:13 76° 284° (WNW) 14:25:30 .
AIST 2 01 Oct 14:16:54 14:18:05 11° 253° (WSW) 14:19:15 435.215
BUGSAT 1 01 Oct 14:18:28 14:20:39 14° 267° (W) 14:22:50 437.445
Gurwin Techsat 1B 01 Oct 14:23:49 14:28:54 49° 72° (ENE) 14:34:01 435.225
M-CUBED/EXP-1 PRIME 01 Oct 14:30:45 14:33:52 43° 291° (WNW) 14:37:02 437.505
AISAT 01 Oct 14:32:38 14:36:08 24° 292° (WNW) 14:39:37 437.250
Oscar 19 01 Oct 14:33:16 14:38:25 65° 258° (WSW) 14:43:36 437.125/150
PHONESAT 2.4 01 Oct 14:34:04 14:36:53 41° 202° (SSW) 14:39:40 2401.200-2431.200
PCSat 01 Oct 14:43:48 14:48:47 38° 249° (WSW) 14:53:44 145.827
50 SAT 01 Oct 14:48:13 14:49:45 12° 294° (WNW) 14:51:16 437.505
DX 1 01 Oct 14:54:04 14:57:31 23° 292° (WNW) 15:00:55 434.975-435.025
Cosmos 2491 01 Oct 14:54:38 15:02:51 47° 88° (E) 15:11:07 435.465 / 435.565
YUBILEINY 01 Oct 14:59:02 15:07:47 87° 83° (E) 15:16:29 435.215
TISAT 1 01 Oct 15:00:28 15:04:39 75° 103° (ESE) 15:08:49 437.305
Cosmos 2504 01 Oct 15:15:10 15:22:21 45° 77° (ENE) 15:29:58 435.465 / 435.565
SO-50 01 Oct 15:20:59 15:25:50 88° 306° (NW) 15:30:39 436.795
AUBIESAT-1 01 Oct 15:25:43 15:27:04 12° 298° (WNW) 15:28:26 437.475
ITAMSAT 1 01 Oct 15:35:14 15:40:20 63° 73° (ENE) 15:45:28 435.822/435.867
ITUPSAT 1 01 Oct 15:40:15 15:44:40 35° 98° (E) 15:49:03 437.325
AO-7 01 Oct 15:48:30 15:56:34 58° 66° (ENE) 16:04:38 29.400- 29.500
SWISSCUBE 01 Oct 15:50:52 15:55:35 52° 101° (E) 16:00:15 437.505
BEESAT 01 Oct 16:03:20 16:08:06 63° 101° (E) 16:12:51 436.000
Gurwin Techsat 1B 01 Oct 16:05:19 16:09:06 20° 267° (W) 16:12:54 435.225
AIST 1 01 Oct 16:08:07 16:11:25 21° 74° (ENE) 16:14:42
KKS-1 01 Oct 16:49:56 16:53:09 19° 94° (E) 16:56:20 437.445
Cosmos 2491 01 Oct 16:51:49 16:59:46 37° 287° (WNW) 17:07:50 435.465 / 435.565
O/OREOS (USA 219) 01 Oct 16:52:58 16:57:16 38° 63° (ENE) 17:01:31 437.305
MOZHAYETS 4 01 Oct 16:53:36 16:57:55 37° 98° (E) 17:02:13
YUBILEINY 01 Oct 16:58:12 17:03:19 17° 282° (WNW) 17:08:27 435.215
SO-50 01 Oct 17:04:29 17:06:59 14° 319° (NW) 17:09:28 436.795
HORYU 2 01 Oct 17:06:51 17:10:16 23° 67° (ENE) 17:13:42 437.375
Cosmos 2504 01 Oct 17:08:54 17:15:28 34° 273° (W) 17:22:28 435.465 / 435.565
STARS 01 Oct 17:12:35 17:15:17 16° 93° (E) 17:18:00 437.465
BRITE-PL 01 Oct 17:13:56 17:18:00 21° 66° (ENE) 17:21:58 437.365/2234.400
ITAMSAT 1 01 Oct 17:17:29 17:20:13 14° 269° (W) 17:22:58 435.822/435.867
ITUPSAT 1 01 Oct 17:18:28 17:22:18 24° 293° (WNW) 17:26:06 437.325
SWISSCUBE 01 Oct 17:29:53 17:32:55 17° 296° (WNW) 17:35:56 437.505
NOAA 15 01 Oct 17:36:58 17:40:00 16° 61° (ENE) 17:43:03 137.62
AO-7 01 Oct 17:42:36 17:49:39 30° 263° (W) 17:56:45 29.400- 29.500
BEESAT 01 Oct 17:42:51 17:45:20 14° 298° (WNW) 17:47:48 436.000
NOAA 18 01 Oct 17:44:07 17:46:15 12° 58° (ENE) 17:48:23 137.9125
AIST 1 01 Oct 17:45:22 17:48:59 27° 270° (W) 17:52:35
RS-15 01 Oct 17:55:29 17:57:51 11° 93° (E) 18:00:15 29.354- 29.394
CUTE-I 01 Oct 18:05:41 18:09:46 23° 65° (ENE) 18:13:52 437.470
Cubesat XI-IV 01 Oct 18:06:51 18:10:58 23° 65° (ENE) 18:15:06 437.490
GOMX 1 01 Oct 18:19:16 18:24:02 35° 71° (ENE) 18:28:35 467.674
DOVE 4 01 Oct 18:21:49 18:24:30 15° 66° (ENE) 18:27:07 437.250
CUBESAT XI-V 01 Oct 18:24:29 18:28:58 45° 98° (E) 18:33:25 437.345
KKS-1 01 Oct 18:25:45 18:29:47 35° 290° (WNW) 18:33:48 437.445
MOZHAYETS 4 01 Oct 18:31:20 18:34:50 21° 293° (WNW) 18:38:17
O/OREOS (USA 219) 01 Oct 18:33:05 18:36:22 20° 259° (W) 18:39:38 437.305
HORYU 2 01 Oct 18:42:43 18:46:38 31° 263° (W) 18:50:34 437.375
STARS 01 Oct 18:47:42 18:51:50 42° 288° (WNW) 18:55:56 437.465
BRITE-PL 01 Oct 18:50:27 18:56:01 56° 260° (W) 19:01:28 437.365/2234.400
CUSAT 1 01 Oct 18:54:18 19:00:16 38° 88° (E) 19:07:15 437.405
LilacSat-2 01 Oct 18:56:19 19:00:01 63° 76° (ENE) 19:03:46 437.200
NOAA 15 01 Oct 19:13:53 19:19:11 68° 258° (WSW) 19:24:30 137.62
NOAA 18 01 Oct 19:20:37 19:26:06 90° 261° (W) 19:31:35 137.9125
GONETS M04 01 Oct 19:22:31 19:30:09 32° 70° (ENE) 19:37:42
DANDE 01 Oct 19:24:55 19:29:18 23° 82° (E) 19:34:32 436.750
STRAND 1 01 Oct 19:34:21 19:34:58 10° 89° (E) 19:35:35 437.568
SEEDS 01 Oct 19:39:29 19:40:00 10° 63° (ENE) 19:40:31 437.485
ISS 01 Oct 19:40:25 19:43:39 71° 139° (SE) 19:46:53 145.825
CUTE 1.7 + AOD 2 01 Oct 19:43:30 19:46:16 17° 67° (ENE) 19:49:04 437.475
CUTE-I 01 Oct 19:44:29 19:49:31 43° 261° (W) 19:54:34 437.470
CANX-2 01 Oct 19:45:11 19:48:20 21° 68° (ENE) 19:51:31 2200.000
Cubesat XI-IV 01 Oct 19:45:44 19:50:45 43° 261° (W) 19:55:49 437.490
RS-15 01 Oct 19:56:16 20:07:32 63° 113° (ESE) 20:19:22 29.354- 29.394
DOVE 4 01 Oct 19:56:54 20:01:47 58° 260° (W) 20:06:25 437.250
GOMX 1 01 Oct 19:57:33 20:02:03 28° 264° (W) 20:06:25 467.674
CUBESAT XI-V 01 Oct 20:02:50 20:05:58 18° 295° (WNW) 20:09:06 437.345
HO-68 01 Oct 20:03:14 20:10:03 49° 67° (ENE) 20:16:53 435.675
Cosmos 2499 01 Oct 20:05:45 20:13:12 50° 78° (ENE) 20:21:11 435.465 / 435.565
COMPASS 1 01 Oct 20:34:48 20:38:25 29° 71° (ENE) 20:42:05 437.405
CUSAT 1 01 Oct 20:35:56 20:42:10 41° 289° (WNW) 20:49:27 437.405
CINEMA 3 01 Oct 20:38:05 20:42:31 80° 259° (W) 20:46:47 145.822/145.860
JUGNU 01 Oct 20:41:55 20:43:20 11° 177° (S) 20:44:48 437.505
AO-85 01 Oct 21:01:39 21:06:54 85° 120° (ESE) 21:11:50 145.980
FUNcube-1 01 Oct 21:02:15 21:04:58 17° 67° (ENE) 21:07:42 145.935
DANDE 01 Oct 21:05:55 21:11:19 51° 286° (WNW) 21:18:20 436.750
STRAND 1 01 Oct 21:09:33 21:14:45 84° 283° (WNW) 21:19:53 437.568
SEEDS 01 Oct 21:10:54 21:15:05 69° 259° (WSW) 21:19:19 437.485
CUBEBUG 2 01 Oct 21:16:46 21:20:55 70° 76° (ENE) 21:25:03 437.445
CUTE 1.7 + AOD 2 01 Oct 21:17:49 21:21:47 39° 262° (W) 21:25:48 437.475
ISS 01 Oct 21:18:03 21:20:25 18° 337° (NNW) 21:22:49 145.825
GONETS M04 01 Oct 21:18:50 21:27:19 55° 270° (W) 21:35:42
CANX-2 01 Oct 21:20:11 21:23:59 31° 264° (W) 21:27:49 2200.000
AAUSAT CUBESAT 2 01 Oct 21:20:52 21:25:02 80° 77° (ENE) 21:29:14 437.432
UWE-3 01 Oct 21:25:46 21:29:50 56° 74° (ENE) 21:33:53 435.000/436.395/437.385
Oscar 11 01 Oct 21:34:52 21:38:56 43° 73° (ENE) 21:43:03 145.826/435.025
ZACube-1 01 Oct 21:45:14 21:49:17 58° 75° (ENE) 21:53:22 437.345
HO-68 01 Oct 21:51:48 21:57:56 30° 264° (W) 22:04:06 435.675
Cosmos 2499 01 Oct 21:59:25 22:05:59 31° 274° (W) 22:12:57 435.465 / 435.565
DELFI C3 01 Oct 22:04:11 22:07:49 34° 72° (ENE) 22:11:28 145.870
RS-15 01 Oct 22:09:34 22:20:35 44° 317° (NW) 22:32:08 29.354- 29.394
COMPASS 1 01 Oct 22:10:47 22:13:58 21° 266° (W) 22:17:12 437.405
FUNcube-1 01 Oct 22:37:08 22:40:56 35° 262° (W) 22:44:45 145.935
PRISM 01 Oct 22:41:50 22:45:59 86° 283° (WNW) 22:50:04 437.425
AO-85 01 Oct 22:44:56 22:47:54 15° 317° (NW) 22:50:46 145.980
STRAND 1 01 Oct 22:52:21 22:53:04 10° 301° (WNW) 22:53:47 437.568
UNISAT 6 01 Oct 22:52:55 22:55:45 16° 93° (E) 22:58:37 437.425
HUMSAT D 01 Oct 23:02:47 23:06:52 85° 77° (ENE) 23:11:01 437.325/437.525
UWE-3 01 Oct 23:05:54 23:06:38 10° 270° (W) 23:07:21 435.000/436.395/437.385
Oscar 11 01 Oct 23:12:45 23:15:16 15° 268° (W) 23:17:48 145.826/435.025
ESTCUBE 1 01 Oct 23:19:12 23:22:33 21° 67° (ENE) 23:25:55 437.505/2401.250
ZACube-1 01 Oct 23:25:48 23:25:57 10° 270° (W) 23:26:04 437.345
ANTELSAT 01 Oct 23:27:01 23:31:13 38° 98° (E) 23:35:27 437.575/2403.000
SRMSAT 01 Oct 23:34:54 23:36:23 11° 180° (S) 23:37:51 437.500
DELFI C3 01 Oct 23:40:09 23:42:44 16° 267° (W) 23:45:20 145.870
M-CUBED/EXP-1 PRIME 01 Oct 23:43:25 23:45:17 13° 62° (ENE) 23:47:07 437.505
TIGRISAT 01 Oct 23:46:07 23:50:31 59° 101° (E) 23:55:01 435.000
50 SAT 01 Oct 23:49:39 23:51:53 16° 67° (ENE) 23:54:08 437.505
AISAT 01 Oct 23:52:25 23:55:58 24° 68° (ENE) 23:59:30 437.250
SO-50 01 Oct 23:53:41 23:58:13 58° 56° (NE) 00:02:36 436.795
BEESAT 3 02 Oct 00:04:23 00:07:35 25° 113° (ESE) 00:10:50 437.485
QB50P2 02 Oct 00:07:59 00:10:06 13° 92° (E) 00:12:13 145.880/145.840
POLYITAN 1 02 Oct 00:10:07 00:12:15 14° 92° (E) 00:14:23 437.675
DX 1 02 Oct 00:12:21 00:15:47 23° 68° (ENE) 00:19:14 434.975-435.025
CUBEBUG 1 02 Oct 00:27:01 00:31:24 70° 76° (ENE) 00:35:47 437.445
UNISAT 6 02 Oct 00:28:24 00:32:38 43° 287° (WNW) 00:36:56 437.425
RS-15 02 Oct 00:29:17 00:37:41 20° 350° (N) 00:46:16 29.354- 29.394
ISS 02 Oct 00:33:44 00:35:36 14° 18° (NNE) 00:37:29 145.825
AUBIESAT-1 02 Oct 00:34:25 00:38:07 40° 69° (ENE) 00:41:35 437.475
VELOX 1 02 Oct 00:34:34 00:38:58 65° 75° (ENE) 00:43:23 145.980
JAS-2 02 Oct 00:40:06 00:47:03 34° 93° (E) 00:53:33 435.910
DUCHIFAT 1 02 Oct 00:40:19 00:43:51 26° 96° (E) 00:47:22 145.980
SPROUT 02 Oct 00:46:49 00:50:53 46° 73° (ENE) 00:54:58 437.525
QB50P1 02 Oct 00:47:13 00:51:07 36° 98° (E) 00:55:01 145.935-145.965
ESTCUBE 1 02 Oct 00:54:56 00:59:06 36° 262° (W) 01:03:19 437.505/2401.250
POPSAT HIP 1 02 Oct 01:01:02 01:05:09 51° 100° (E) 01:09:16 437.405
ANTELSAT 02 Oct 01:04:27 01:07:39 20° 293° (WNW) 01:10:53 437.575/2403.000
Cosmos 2491 02 Oct 01:07:03 01:13:27 21° 65° (ENE) 01:19:47 435.465 / 435.565
BEESAT 2 02 Oct 01:08:27 01:12:20 66° 119° (ESE) 01:16:18 435.950
UKube-1 02 Oct 01:09:52 01:14:11 77° 75° (ENE) 01:18:31 .
NANOSAT C BR1 02 Oct 01:14:05 01:18:18 71° 102° (ESE) 01:22:29 145.865
M-CUBED/EXP-1 PRIME 02 Oct 01:15:37 01:19:32 46° 255° (WSW) 01:23:10 437.505
50 SAT 02 Oct 01:21:53 01:25:06 30° 263° (W) 01:28:22 437.505
TIGRISAT 02 Oct 01:24:38 01:26:43 13° 296° (WNW) 01:28:49 435.000
AISAT 02 Oct 01:28:21 01:32:16 30° 263° (W) 01:36:11 437.250
SO-50 02 Oct 01:35:52 01:38:07 14° 252° (WSW) 01:40:21 436.795
BEESAT 3 02 Oct 01:41:50 01:45:09 26° 309° (NW) 01:48:30 437.485
QB50P2 02 Oct 01:42:04 01:46:07 46° 287° (WNW) 01:50:11 145.880/145.840
POLYITAN 1 02 Oct 01:44:13 01:48:17 46° 287° (WNW) 01:52:20 437.675
DX 1 02 Oct 01:47:58 01:51:48 30° 263° (W) 01:55:40 434.975-435.025
TISAT 1 02 Oct 01:50:46 01:54:46 46° 73° (ENE) 01:58:46 437.305
BUGSAT 1 02 Oct 01:58:55 02:02:57 86° 100° (E) 02:07:01 437.445
YUBILEINY 02 Oct 02:05:14 02:11:01 20° 79° (E) 02:16:47 435.215
ISS 02 Oct 02:09:22 02:12:38 62° 36° (NE) 02:15:53 145.825
AUBIESAT-1 02 Oct 02:10:42 02:12:39 13° 261° (W) 02:14:33 437.475
VELOX 1 02 Oct 02:14:49 02:15:49 11° 270° (W) 02:16:50 145.980
DUCHIFAT 1 02 Oct 02:16:02 02:19:25 24° 291° (WNW) 02:22:49 145.980
QB50P1 02 Oct 02:23:43 02:26:37 18° 293° (WNW) 02:29:30 145.935-145.965
JAS-2 02 Oct 02:24:43 02:32:09 49° 292° (WNW) 02:39:09 435.910
SPROUT 02 Oct 02:24:51 02:27:03 14° 268° (W) 02:29:16 437.525
AIST 2 02 Oct 02:33:43 02:36:22 17° 110° (ESE) 02:39:02 435.215
POPSAT HIP 1 02 Oct 02:38:27 02:40:29 13° 295° (WNW) 02:42:30 437.405
Gurwin Techsat 1B 02 Oct 02:41:52 02:45:50 21° 93° (E) 02:49:47 435.225
ITUPSAT 1 02 Oct 02:45:53 02:50:12 36° 70° (ENE) 02:54:35 437.325
Oscar 19 02 Oct 02:46:00 02:50:59 48° 100° (E) 02:55:55 437.125/150
RS-15 02 Oct 02:46:32 02:56:24 26° 26° (NNE) 03:06:12 29.354- 29.394
BEESAT 2 02 Oct 02:48:40 02:50:35 13° 316° (NW) 02:52:31 435.950
SWISSCUBE 02 Oct 02:56:04 03:00:40 53° 73° (ENE) 03:05:19 437.505
Cosmos 2491 02 Oct 03:02:25 03:11:17 79° 265° (W) 03:20:03 435.465 / 435.565
BEESAT 02 Oct 03:08:25 03:13:06 64° 74° (ENE) 03:17:51 436.000
TISAT 1 02 Oct 03:28:36 03:30:38 13° 268° (W) 03:32:40 437.305
PCSat 02 Oct 03:41:14 03:45:58 32° 109° (ESE) 03:50:44 145.827
ISS 02 Oct 03:47:13 03:48:44 13° 231° (SW) 03:50:16 145.825
KKS-1 02 Oct 03:47:27 03:50:18 17° 65° (ENE) 03:53:07 437.445
ITAMSAT 1 02 Oct 03:49:46 03:53:59 24° 95° (E) 03:58:12 435.822/435.867
AO-7 02 Oct 03:53:01 03:58:18 18° 92° (E) 04:03:34 29.400- 29.500
Cosmos 2504 02 Oct 03:53:12 03:59:45 36° 88° (E) 04:06:08 435.465 / 435.565
MOZHAYETS 4 02 Oct 03:54:26 03:58:26 31° 70° (ENE) 04:02:29
